Time,TemperatureF,DewpointF,PressureIn,WindDirection,WindDirectionDegrees,WindSpeedMPH,WindSpeedGustMPH,Humidity,HourlyPrecipIn,Conditions,Clouds,dailyrainin,SoftwareType,DateUTC
2013-12-03 00:01:00,47.1,40.6,29.94,East,98,0.0,0.0,78,0.00,,---,0.00,VWS V14.01,2013-12-03 05:01:00,
2013-12-03 00:02:00,47.1,40.9,29.94,East,98,0.0,0.0,79,0.00,,---,0.00,VWS V14.01,2013-12-03 05:02:00,
2013-12-03 00:03:00,47.1,40.9,29.94,East,98,0.0,0.0,79,0.00,,---,0.00,VWS V14.01,2013-12-03 05:03:00,
2013-12-03 00:04:00,47.1,40.9,29.94,East,98,0.0,0.0,79,0.00,,---,0.00,VWS V14.01,2013-12-03 05:04:00,
2013-12-03 00:09:00,47.0,40.5,29.94,East,98,0.0,0.0,78,0.00,,---,0.00,VWS V14.01,2013-12-03 05:09:00,
2013-12-03 00:12:00,47.0,40.5,29.94,East,98,0.0,0.0,78,0.00,,---,0.00,VWS V14.01,2013-12-03 05:12:00,
2013-12-03 00:17:00,46.9,40.4,29.94,East,98,0.0,0.0,78,0.00,,---,0.00,VWS V14.01,2013-12-03 05:17:00,
2013-12-03 00:19:00,46.9,40.7,29.94,East,98,0.0,0.0,79,0.00,,---,0.00,VWS V14.01,2013-12-03 05:19:00,
2013-12-03 00:24:00,46.9,40.7,29.94,East,98,0.0,0.0,79,0.00,,---,0.00,VWS V14.01,2013-12-03 05:24:00,
2013-12-03 00:29:00,46.9,41.1,29.94,East,98,0.0,0.0,80,0.00,,---,0.00,VWS V14.01,2013-12-03 05:29:00,
2013-12-03 00:34:00,46.8,41.0,29.94,East,98,0.0,0.0,80,0.00,,---,0.00,VWS V14.01,2013-12-03 05:34:00,
2013-12-03 00:39:00,46.8,41.0,29.94,East,98,0.0,0.0,80,0.00,,---,0.00,VWS V14.01,2013-12-03 05:39:00,
2013-12-03 00:44:00,46.8,41.0,29.94,East,98,0.0,0.0,80,0.00,,---,0.00,VWS V14.01,2013-12-03 05:44:00,
2013-12-03 00:49:00,46.7,40.9,29.93,East,98,0.0,0.0,80,0.00,,---,0.00,VWS V14.01,2013-12-03 05:49:00,
2013-12-03 00:54:00,46.7,40.9,29.93,East,98,0.0,0.0,80,0.00,,---,0.00,VWS V14.01,2013-12-03 05:54:00,
2013-12-03 00:59:00,46.6,40.8,29.93,East,98,0.0,0.0,80,0.00,,---,0.00,VWS V14.01,2013-12-03 05:59:00,
2013-12-03 01:04:00,46.6,40.8,29.93,East,98,0.0,0.0,80,0.00,,---,0.00,VWS V14.01,2013-12-03 06:04:00,
2013-12-03 01:09:00,46.6,40.8,29.93,East,98,0.0,0.0,80,0.00,,---,0.00,VWS V14.01,2013-12-03 06:09:00,
2013-12-03 01:14:00,46.5,41.0,29.93,East,98,0.0,0.0,81,0.00,,---,0.00,VWS V14.01,2013-12-03 06:14:00,
2013-12-03 01:19:00,46.5,40.7,29.94,East,98,0.0,0.0,80,0.00,,---,0.00,VWS V14.01,2013-12-03 06:19:00,
2013-12-03 01:24:00,46.4,40.6,29.94,East,98,0.0,0.0,80,0.00,,---,0.00,VWS V14.01,2013-12-03 06:24:00,
2013-12-03 01:29:00,46.3,40.5,29.94,East,98,0.0,0.0,80,0.00,,---,0.00,VWS V14.01,2013-12-03 06:29:00,
2013-12-03 01:34:00,46.1,40.0,29.94,East,98,0.0,0.0,79,0.00,,---,0.00,VWS V14.01,2013-12-03 06:34:00,
2013-12-03 01:39:00,45.9,39.8,29.94,East,98,0.0,0.0,79,0.00,,---,0.00,VWS V14.01,2013-12-03 06:39:00,
2013-12-03 01:44:00,45.7,39.6,29.94,East,98,0.0,0.0,79,0.00,,---,0.00,VWS V14.01,2013-12-03 06:44:00,
2013-12-03 01:49:00,45.5,39.4,29.94,East,98,0.0,0.0,79,0.00,,---,0.00,VWS V14.01,2013-12-03 06:49:00,
2013-12-03 01:55:00,45.3,39.2,29.94,East,98,0.0,0.0,79,0.00,,---,0.00,VWS V14.01,2013-12-03 06:55:00,
2013-12-03 02:00:00,45.0,38.9,29.94,East,98,0.0,0.0,79,0.00,,---,0.00,VWS V14.01,2013-12-03 07:00:00,
2013-12-03 02:05:00,44.8,39.0,29.94,East,98,0.0,0.0,80,0.00,,---,0.00,VWS V14.01,2013-12-03 07:05:00,
2013-12-03 02:10:00,44.6,38.8,29.94,East,98,0.0,0.0,80,0.00,,---,0.00,VWS V14.01,2013-12-03 07:10:00,
2013-12-03 02:15:00,44.4,38.6,29.94,East,98,0.0,0.0,80,0.00,,---,0.00,VWS V14.01,2013-12-03 07:15:00,
2013-12-03 02:20:00,44.2,38.8,29.94,East,98,0.0,0.0,81,0.00,,---,0.00,VWS V14.01,2013-12-03 07:20:00,
2013-12-03 02:25:00,44.1,38.7,29.94,East,98,0.0,0.0,81,0.00,,---,0.00,VWS V14.01,2013-12-03 07:25:00,
2013-12-03 02:30:00,43.9,38.8,29.94,East,98,0.0,0.0,82,0.00,,---,0.00,VWS V14.01,2013-12-03 07:30:00,
2013-12-03 02:35:00,43.7,38.9,29.94,East,98,0.0,0.0,83,0.00,,---,0.00,VWS V14.01,2013-12-03 07:35:00,
2013-12-03 02:40:00,43.7,39.2,29.94,East,98,0.0,0.0,84,0.00,,---,0.00,VWS V14.01,2013-12-03 07:40:00,
2013-12-03 02:45:00,43.6,39.1,29.94,East,98,0.0,0.0,84,0.00,,---,0.00,VWS V14.01,2013-12-03 07:45:00,
2013-12-03 02:50:00,43.6,39.4,29.94,East,98,0.0,0.0,85,0.00,,---,0.00,VWS V14.01,2013-12-03 07:50:00,
2013-12-03 02:55:00,43.5,39.3,29.94,East,98,0.0,0.0,85,0.00,,---,0.00,VWS V14.01,2013-12-03 07:55:00,
2013-12-03 03:00:00,43.5,39.3,29.94,East,98,0.0,0.0,85,0.00,,---,0.00,VWS V14.01,2013-12-03 08:00:00,
2013-12-03 03:05:00,43.5,39.3,29.94,East,98,0.0,0.0,85,0.00,,---,0.00,VWS V14.01,2013-12-03 08:05:00,
2013-12-03 03:10:00,43.5,39.3,29.94,East,98,0.0,0.0,85,0.00,,---,0.00,VWS V14.01,2013-12-03 08:10:00,
2013-12-03 03:15:00,43.5,39.6,29.93,East,98,0.0,0.0,86,0.00,,---,0.00,VWS V14.01,2013-12-03 08:15:00,
2013-12-03 03:20:00,43.6,39.7,29.93,East,98,0.0,0.0,86,0.00,,---,0.00,VWS V14.01,2013-12-03 08:20:00,
2013-12-03 03:25:00,43.6,39.7,29.93,East,98,0.0,0.0,86,0.00,,---,0.00,VWS V14.01,2013-12-03 08:25:00,
2013-12-03 03:30:00,43.6,39.7,29.94,East,98,0.0,0.0,86,0.00,,---,0.00,VWS V14.01,2013-12-03 08:30:00,
2013-12-03 03:35:00,43.6,39.7,29.94,East,98,0.0,0.0,86,0.00,,---,0.00,VWS V14.01,2013-12-03 08:35:00,
2013-12-03 03:40:00,43.7,39.8,29.93,East,98,0.0,0.0,86,0.00,,---,0.00,VWS V14.01,2013-12-03 08:40:00,
2013-12-03 03:45:00,43.7,39.8,29.93,East,98,0.0,0.0,86,0.00,,---,0.00,VWS V14.01,2013-12-03 08:45:00,
2013-12-03 03:51:00,43.6,39.7,29.93,East,98,0.0,0.0,86,0.00,,---,0.00,VWS V14.01,2013-12-03 08:51:00,
2013-12-03 03:56:00,43.6,39.7,29.93,East,98,0.0,0.0,86,0.00,,---,0.00,VWS V14.01,2013-12-03 08:56:00,
2013-12-03 04:01:00,43.6,39.7,29.93,East,98,0.0,0.0,86,0.00,,---,0.00,VWS V14.01,2013-12-03 09:01:00,
2013-12-03 04:06:00,43.5,39.6,29.93,East,98,0.0,0.0,86,0.00,,---,0.00,VWS V14.01,2013-12-03 09:06:00,
2013-12-03 04:11:00,43.5,39.6,29.93,East,98,0.0,0.0,86,0.00,,---,0.00,VWS V14.01,2013-12-03 09:11:00,
2013-12-03 04:16:00,43.5,39.6,29.93,East,98,0.0,0.0,86,0.00,,---,0.00,VWS V14.01,2013-12-03 09:16:00,
2013-12-03 04:21:00,43.4,39.8,29.93,East,98,0.0,0.0,87,0.00,,---,0.00,VWS V14.01,2013-12-03 09:21:00,
2013-12-03 04:26:00,43.4,39.8,29.93,East,98,0.0,0.0,87,0.00,,---,0.00,VWS V14.01,2013-12-03 09:26:00,
2013-12-03 04:31:00,43.5,39.9,29.93,East,98,0.0,0.0,87,0.00,,---,0.00,VWS V14.01,2013-12-03 09:31:00,
2013-12-03 04:36:00,43.5,39.9,29.93,East,98,0.0,0.0,87,0.00,,---,0.00,VWS V14.01,2013-12-03 09:36:00,
2013-12-03 04:41:00,43.6,40.0,29.93,East,98,0.0,0.0,87,0.00,,---,0.00,VWS V14.01,2013-12-03 09:41:00,
2013-12-03 04:46:00,43.7,40.1,29.94,East,98,0.0,1.0,87,0.00,,---,0.00,VWS V14.01,2013-12-03 09:46:00,
2013-12-03 04:51:00,43.8,40.5,29.94,East,98,0.0,1.0,88,0.00,,---,0.00,VWS V14.01,2013-12-03 09:51:00,
2013-12-03 04:56:00,43.9,40.6,29.94,East,98,0.0,1.0,88,0.00,,---,0.00,VWS V14.01,2013-12-03 09:56:00,
2013-12-03 05:01:00,44.1,40.8,29.94,East,98,0.0,0.0,88,0.00,,---,0.00,VWS V14.01,2013-12-03 10:01:00,
2013-12-03 05:06:00,44.2,40.9,29.94,East,98,0.0,0.0,88,0.00,,---,0.00,VWS V14.01,2013-12-03 10:06:00,
2013-12-03 05:11:00,44.4,41.1,29.94,East,98,0.0,0.0,88,0.00,,---,0.00,VWS V14.01,2013-12-03 10:11:00,
2013-12-03 05:16:00,44.6,41.3,29.94,East,98,0.0,0.0,88,0.00,,---,0.00,VWS V14.01,2013-12-03 10:16:00,
2013-12-03 05:21:00,44.8,41.2,29.95,East,98,0.0,0.0,87,0.00,,---,0.00,VWS V14.01,2013-12-03 10:21:00,
2013-12-03 05:26:00,45.0,41.4,29.95,East,98,0.0,0.0,87,0.00,,---,0.00,VWS V14.01,2013-12-03 10:26:00,
2013-12-03 05:31:00,45.1,41.5,29.95,East,98,0.0,0.0,87,0.00,,---,0.00,VWS V14.01,2013-12-03 10:31:00,
2013-12-03 05:36:00,45.3,41.4,29.95,East,98,0.0,0.0,86,0.00,,---,0.00,VWS V14.01,2013-12-03 10:36:00,
2013-12-03 05:42:00,45.4,41.5,29.95,East,98,0.0,0.0,86,0.00,,---,0.00,VWS V14.01,2013-12-03 10:42:00,
2013-12-03 05:47:00,45.6,41.7,29.95,East,98,0.0,0.0,86,0.00,,---,0.00,VWS V14.01,2013-12-03 10:47:00,
2013-12-03 05:52:00,45.7,41.8,29.96,East,98,0.0,0.0,86,0.00,,---,0.00,VWS V14.01,2013-12-03 10:52:00,
2013-12-03 05:57:00,45.9,42.0,29.96,East,98,0.0,0.0,86,0.00,,---,0.00,VWS V14.01,2013-12-03 10:57:00,
2013-12-03 06:02:00,46.0,42.0,29.96,East,98,0.0,0.0,86,0.00,,---,0.00,VWS V14.01,2013-12-03 11:02:00,
2013-12-03 06:07:00,46.1,42.2,29.96,East,98,0.0,0.0,86,0.00,,---,0.00,VWS V14.01,2013-12-03 11:07:00,
2013-12-03 06:12:00,46.2,42.2,29.96,East,98,0.0,0.0,86,0.00,,---,0.00,VWS V14.01,2013-12-03 11:12:00,
2013-12-03 06:17:00,46.3,42.3,29.96,East,98,0.0,0.0,86,0.00,,---,0.00,VWS V14.01,2013-12-03 11:17:00,
2013-12-03 06:22:00,46.4,42.5,29.97,East,98,0.0,0.0,86,0.00,,---,0.00,VWS V14.01,2013-12-03 11:22:00,
2013-12-03 06:27:00,46.5,42.5,29.97,East,98,0.0,0.0,86,0.00,,---,0.00,VWS V14.01,2013-12-03 11:27:00,
2013-12-03 06:32:00,46.6,42.6,29.97,East,98,0.0,0.0,86,0.00,,---,0.00,VWS V14.01,2013-12-03 11:32:00,
2013-12-03 06:37:00,46.7,42.7,29.97,East,98,0.0,0.0,86,0.00,,---,0.00,VWS V14.01,2013-12-03 11:37:00,
2013-12-03 06:42:00,46.7,42.7,29.97,East,98,0.0,0.0,86,0.00,,---,0.00,VWS V14.01,2013-12-03 11:42:00,
2013-12-03 06:47:00,46.8,42.5,29.97,East,98,0.0,0.0,85,0.00,,---,0.00,VWS V14.01,2013-12-03 11:47:00,
2013-12-03 06:52:00,46.8,42.5,29.97,East,98,0.0,0.0,85,0.00,,---,0.00,VWS V14.01,2013-12-03 11:52:00,
2013-12-03 06:57:00,46.9,42.6,29.98,East,98,0.0,0.0,85,0.00,,---,0.00,VWS V14.01,2013-12-03 11:57:00,
2013-12-03 07:02:00,46.9,42.6,29.98,East,98,0.0,0.0,85,0.00,,---,0.00,VWS V14.01,2013-12-03 12:02:00,
2013-12-03 07:07:00,47.0,42.7,29.98,East,98,0.0,1.0,85,0.00,,---,0.00,VWS V14.01,2013-12-03 12:07:00,
2013-12-03 07:12:00,47.1,42.8,29.98,East,98,0.0,1.0,85,0.00,,---,0.00,VWS V14.01,2013-12-03 12:12:00,
2013-12-03 07:17:00,47.2,42.9,29.97,East,98,0.0,0.0,85,0.00,,---,0.00,VWS V14.01,2013-12-03 12:17:00,
2013-12-03 07:22:00,47.3,43.3,29.98,East,98,0.0,0.0,86,0.00,,---,0.00,VWS V14.01,2013-12-03 12:22:00,
2013-12-03 07:27:00,47.4,43.4,29.98,East,98,0.0,0.0,86,0.00,,---,0.00,VWS V14.01,2013-12-03 12:27:00,
2013-12-03 07:32:00,47.4,43.4,29.98,East,98,0.0,0.0,86,0.00,,---,0.00,VWS V14.01,2013-12-03 12:32:00,
2013-12-03 07:37:00,47.5,43.5,29.98,East,98,0.0,0.0,86,0.00,,---,0.00,VWS V14.01,2013-12-03 12:37:00,
2013-12-03 07:43:00,47.6,43.6,29.97,East,98,0.0,0.0,86,0.00,,---,0.00,VWS V14.01,2013-12-03 12:43:00,
2013-12-03 07:48:00,47.6,43.9,29.98,East,98,0.0,0.0,87,0.00,,---,0.00,VWS V14.01,2013-12-03 12:48:00,
2013-12-03 07:53:00,47.7,44.0,29.98,East,98,0.0,0.0,87,0.00,,---,0.00,VWS V14.01,2013-12-03 12:53:00,
2013-12-03 07:58:00,47.7,44.0,29.98,East,98,0.0,0.0,87,0.00,,---,0.00,VWS V14.01,2013-12-03 12:58:00,
2013-12-03 08:03:00,47.7,44.0,29.98,East,98,0.0,0.0,87,0.00,,---,0.00,VWS V14.01,2013-12-03 13:03:00,
2013-12-03 08:08:00,47.8,44.1,29.98,East,98,0.0,0.0,87,0.00,,---,0.00,VWS V14.01,2013-12-03 13:08:00,
2013-12-03 08:13:00,47.9,44.2,29.98,East,98,0.0,0.0,87,0.00,,---,0.00,VWS V14.01,2013-12-03 13:13:00,
2013-12-03 08:18:00,47.9,44.5,29.98,East,98,0.0,0.0,88,0.00,,---,0.00,VWS V14.01,2013-12-03 13:18:00,
2013-12-03 08:23:00,48.0,44.9,29.98,East,98,0.0,0.0,89,0.00,,---,0.00,VWS V14.01,2013-12-03 13:23:00,
2013-12-03 08:28:00,48.2,45.1,29.98,East,98,0.0,0.0,89,0.00,,---,0.00,VWS V14.01,2013-12-03 13:28:00,
2013-12-03 08:33:00,48.3,45.2,29.98,ESE,109,0.0,3.0,89,0.00,,---,0.00,VWS V14.01,2013-12-03 13:33:00,
2013-12-03 08:38:00,48.5,45.4,29.98,SE,124,1.0,3.0,89,0.00,,---,0.00,VWS V14.01,2013-12-03 13:38:00,
2013-12-03 08:43:00,48.7,45.6,29.98,SSW,201,0.0,3.0,89,0.00,,---,0.00,VWS V14.01,2013-12-03 13:43:00,
2013-12-03 08:48:00,49.0,45.9,29.98,South,190,0.0,2.0,89,0.00,,---,0.00,VWS V14.01,2013-12-03 13:48:00,
2013-12-03 08:53:00,49.3,46.2,29.99,South,191,0.0,2.0,89,0.00,,---,0.00,VWS V14.01,2013-12-03 13:53:00,
2013-12-03 08:58:00,49.6,46.5,29.99,South,191,1.0,3.0,89,0.00,,---,0.00,VWS V14.01,2013-12-03 13:58:00,
2013-12-03 09:03:00,50.0,46.9,29.99,SSW,193,2.0,2.0,89,0.00,,---,0.00,VWS V14.01,2013-12-03 14:03:00,
2013-12-03 09:08:00,50.3,46.9,29.99,South,185,0.0,3.0,88,0.00,,---,0.00,VWS V14.01,2013-12-03 14:08:00,
2013-12-03 09:13:00,50.6,47.2,29.99,South,174,0.0,3.0,88,0.00,,---,0.00,VWS V14.01,2013-12-03 14:13:00,
2013-12-03 09:18:00,50.9,47.2,29.99,South,178,3.0,3.0,87,0.00,,---,0.00,VWS V14.01,2013-12-03 14:18:00,
2013-12-03 09:23:00,51.1,47.4,29.99,SSW,192,0.0,4.0,87,0.00,,---,0.00,VWS V14.01,2013-12-03 14:23:00,
2013-12-03 09:28:00,51.3,47.6,29.99,South,183,1.0,4.0,87,0.00,,---,0.00,VWS V14.01,2013-12-03 14:28:00,
2013-12-03 09:33:00,51.5,47.5,29.99,SSW,205,0.0,4.0,86,0.00,,---,0.00,VWS V14.01,2013-12-03 14:33:00,
2013-12-03 09:38:00,51.7,47.7,30.00,SSW,202,1.0,4.0,86,0.00,,---,0.00,VWS V14.01,2013-12-03 14:38:00,
2013-12-03 09:44:00,51.9,48.2,30.00,SW,215,0.0,4.0,87,0.00,,---,0.00,VWS V14.01,2013-12-03 14:44:00,
2013-12-03 09:49:00,52.3,48.2,30.00,SW,232,1.0,4.0,86,0.00,,---,0.00,VWS V14.01,2013-12-03 14:49:00,
2013-12-03 09:54:00,52.6,48.5,30.00,SW,215,2.0,4.0,86,0.00,,---,0.00,VWS V14.01,2013-12-03 14:54:00,
2013-12-03 09:59:00,52.8,48.7,30.01,SSW,213,0.0,4.0,86,0.00,,---,0.00,VWS V14.01,2013-12-03 14:59:00,
2013-12-03 10:04:00,53.1,49.0,30.01,WSW,250,0.0,2.0,86,0.00,,---,0.00,VWS V14.01,2013-12-03 15:04:00,
2013-12-03 10:09:00,53.6,49.8,30.01,SSW,207,0.0,5.0,87,0.00,,---,0.00,VWS V14.01,2013-12-03 15:09:00,
2013-12-03 10:14:00,53.9,49.8,30.01,SSW,207,0.0,5.0,86,0.00,,---,0.00,VWS V14.01,2013-12-03 15:14:00,
2013-12-03 10:19:00,54.2,50.1,30.01,WSW,239,0.0,2.0,86,0.00,,---,0.00,VWS V14.01,2013-12-03 15:19:00,
2013-12-03 10:24:00,54.4,50.3,30.02,WNW,294,1.0,4.0,86,0.00,,---,0.00,VWS V14.01,2013-12-03 15:24:00,
2013-12-03 10:29:00,54.8,50.7,30.01,WNW,288,2.0,4.0,86,0.00,,---,0.00,VWS V14.01,2013-12-03 15:29:00,
2013-12-03 10:34:00,55.3,51.2,30.01,West,279,0.0,4.0,86,0.00,,---,0.00,VWS V14.01,2013-12-03 15:34:00,
2013-12-03 10:39:00,55.9,51.8,30.01,SW,234,0.0,4.0,86,0.00,,---,0.00,VWS V14.01,2013-12-03 15:39:00,
2013-12-03 10:44:00,56.7,51.9,30.01,SW,219,0.0,4.0,84,0.00,,---,0.00,VWS V14.01,2013-12-03 15:44:00,
2013-12-03 10:49:00,57.3,51.9,30.01,SSW,200,1.0,3.0,82,0.00,,---,0.00,VWS V14.01,2013-12-03 15:49:00,
2013-12-03 10:54:00,58.0,52.5,30.01,WSW,254,1.0,5.0,82,0.00,,---,0.00,VWS V14.01,2013-12-03 15:54:00,
2013-12-03 10:59:00,58.6,52.5,30.01,SSW,194,0.0,5.0,80,0.00,,---,0.00,VWS V14.01,2013-12-03 15:59:00,
2013-12-03 11:04:00,59.0,52.5,30.01,South,176,3.0,5.0,79,0.00,,---,0.00,VWS V14.01,2013-12-03 16:04:00,
2013-12-03 11:09:00,59.3,52.5,30.01,South,175,0.0,6.0,78,0.00,,---,0.00,VWS V14.01,2013-12-03 16:09:00,
2013-12-03 11:14:00,59.4,52.2,30.01,SW,215,0.0,6.0,77,0.00,,---,0.00,VWS V14.01,2013-12-03 16:14:00,
2013-12-03 11:19:00,59.5,52.3,30.01,South,190,3.0,5.0,77,0.00,,---,0.00,VWS V14.01,2013-12-03 16:19:00,
2013-12-03 11:24:00,59.8,52.6,30.00,South,185,0.0,5.0,77,0.00,,---,0.00,VWS V14.01,2013-12-03 16:24:00,
2013-12-03 11:29:00,60.6,52.6,30.00,SW,219,0.0,6.0,75,0.00,,---,0.00,VWS V14.01,2013-12-03 16:29:00,
2013-12-03 11:34:00,61.5,53.2,30.00,SSW,209,0.0,6.0,74,0.00,,---,0.00,VWS V14.01,2013-12-03 16:34:00,
2013-12-03 11:39:00,62.0,53.3,30.00,WNW,296,1.0,6.0,73,0.00,,---,0.00,VWS V14.01,2013-12-03 16:39:00,
2013-12-03 11:44:00,62.2,53.1,30.00,West,273,1.0,6.0,72,0.00,,---,0.00,VWS V14.01,2013-12-03 16:44:00,
2013-12-03 11:50:00,62.7,52.8,30.00,SE,138,3.0,5.0,70,0.00,,---,0.00,VWS V14.01,2013-12-03 16:50:00,
2013-12-03 11:55:00,62.5,52.6,29.99,SSW,202,3.0,6.0,70,0.00,,---,0.00,VWS V14.01,2013-12-03 16:55:00,
2013-12-03 12:00:00,62.2,51.9,29.99,SSW,211,7.0,7.0,69,0.00,,---,0.00,VWS V14.01,2013-12-03 17:00:00,
2013-12-03 12:05:00,61.8,51.5,29.99,SSW,209,4.0,6.0,69,0.00,,---,0.00,VWS V14.01,2013-12-03 17:05:00,
2013-12-03 12:10:00,61.4,50.8,29.99,South,169,2.0,7.0,68,0.00,,---,0.00,VWS V14.01,2013-12-03 17:10:00,
2013-12-03 12:15:00,61.1,50.9,29.99,SSW,211,4.0,7.0,69,0.00,,---,0.00,VWS V14.01,2013-12-03 17:15:00,
2013-12-03 12:20:00,61.4,52.3,29.99,SSW,212,1.0,4.0,72,0.00,,---,0.00,VWS V14.01,2013-12-03 17:20:00,
2013-12-03 12:25:00,62.0,51.3,29.98,SSW,197,3.0,8.0,68,0.00,,---,0.00,VWS V14.01,2013-12-03 17:25:00,
2013-12-03 12:30:00,62.5,51.8,29.98,SW,225,1.0,8.0,68,0.00,,---,0.00,VWS V14.01,2013-12-03 17:30:00,
2013-12-03 12:35:00,62.6,52.3,29.98,South,178,1.0,2.0,69,0.00,,---,0.00,VWS V14.01,2013-12-03 17:35:00,
2013-12-03 12:40:00,62.9,51.8,29.98,NW,316,0.0,5.0,67,0.00,,---,0.00,VWS V14.01,2013-12-03 17:40:00,
2013-12-03 12:45:00,63.1,52.0,29.97,South,176,0.0,5.0,67,0.00,,---,0.00,VWS V14.01,2013-12-03 17:45:00,
2013-12-03 12:50:00,63.4,51.9,29.97,SW,229,1.0,5.0,66,0.00,,---,0.00,VWS V14.01,2013-12-03 17:50:00,
2013-12-03 12:55:00,63.4,51.9,29.97,NW,305,0.0,6.0,66,0.00,,---,0.00,VWS V14.01,2013-12-03 17:55:00,
2013-12-03 13:00:00,63.4,51.9,29.97,WSW,257,0.0,7.0,66,0.00,,---,0.00,VWS V14.01,2013-12-03 18:00:00,
2013-12-03 13:05:00,63.3,50.9,29.97,SSE,156,9.0,9.0,64,0.00,,---,0.00,VWS V14.01,2013-12-03 18:05:00,
2013-12-03 13:10:00,62.8,50.9,29.97,SW,218,1.0,9.0,65,0.00,,---,0.00,VWS V14.01,2013-12-03 18:10:00,
2013-12-03 13:15:00,62.7,50.8,29.97,SSW,197,0.0,2.0,65,0.00,,---,0.00,VWS V14.01,2013-12-03 18:15:00,
2013-12-03 13:20:00,62.5,51.0,29.97,SW,224,1.0,7.0,66,0.00,,---,0.00,VWS V14.01,2013-12-03 18:20:00,
2013-12-03 13:25:00,62.4,50.9,29.97,South,176,4.0,7.0,66,0.00,,---,0.00,VWS V14.01,2013-12-03 18:25:00,
2013-12-03 13:30:00,62.3,50.8,29.97,SW,215,3.0,5.0,66,0.00,,---,0.00,VWS V14.01,2013-12-03 18:30:00,
2013-12-03 13:35:00,62.2,50.7,29.96,SSE,164,2.0,7.0,66,0.00,,---,0.00,VWS V14.01,2013-12-03 18:35:00,
2013-12-03 13:40:00,61.9,50.8,29.96,WSW,238,0.0,7.0,67,0.00,,---,0.00,VWS V14.01,2013-12-03 18:40:00,
2013-12-03 13:46:00,61.9,50.8,29.96,SW,218,1.0,3.0,67,0.00,,---,0.00,VWS V14.01,2013-12-03 18:46:00,
2013-12-03 13:51:00,61.8,50.7,29.96,SW,236,1.0,4.0,67,0.00,,---,0.00,VWS V14.01,2013-12-03 18:51:00,
2013-12-03 13:56:00,61.9,50.8,29.96,South,175,1.0,4.0,67,0.00,,---,0.00,VWS V14.01,2013-12-03 18:56:00,
2013-12-03 14:01:00,61.9,50.8,29.96,SSW,207,0.0,2.0,67,0.00,,---,0.00,VWS V14.01,2013-12-03 19:01:00,
2013-12-03 14:06:00,61.9,50.4,29.96,SSE,167,3.0,6.0,66,0.00,,---,0.00,VWS V14.01,2013-12-03 19:06:00,
2013-12-03 14:11:00,61.8,50.3,29.96,SW,218,2.0,7.0,66,0.00,,---,0.00,VWS V14.01,2013-12-03 19:11:00,
2013-12-03 14:16:00,61.8,50.7,29.96,WSW,240,5.0,5.0,67,0.00,,---,0.00,VWS V14.01,2013-12-03 19:16:00,
2013-12-03 14:21:00,61.8,49.9,29.96,South,188,5.0,6.0,65,0.00,,---,0.00,VWS V14.01,2013-12-03 19:21:00,
2013-12-03 14:26:00,61.7,49.8,29.96,South,190,2.0,7.0,65,0.00,,---,0.00,VWS V14.01,2013-12-03 19:26:00,
2013-12-03 14:31:00,61.7,49.8,29.96,SSE,153,2.0,6.0,65,0.00,,---,0.00,VWS V14.01,2013-12-03 19:31:00,
2013-12-03 14:36:00,61.5,49.6,29.96,South,175,5.0,8.0,65,0.00,,---,0.00,VWS V14.01,2013-12-03 19:36:00,
2013-12-03 14:41:00,61.4,49.5,29.96,South,184,5.0,8.0,65,0.00,,---,0.00,VWS V14.01,2013-12-03 19:41:00,
2013-12-03 14:46:00,61.2,49.8,29.96,SSE,161,3.0,7.0,66,0.00,,---,0.00,VWS V14.01,2013-12-03 19:46:00,
2013-12-03 14:51:00,61.0,49.6,29.96,SSE,163,6.0,7.0,66,0.00,,---,0.00,VWS V14.01,2013-12-03 19:51:00,
2013-12-03 14:56:00,60.9,49.5,29.96,South,188,2.0,7.0,66,0.00,,---,0.00,VWS V14.01,2013-12-03 19:56:00,
2013-12-03 15:01:00,60.7,49.7,29.96,South,188,4.0,6.0,67,0.00,,---,0.00,VWS V14.01,2013-12-03 20:01:00,
2013-12-03 15:06:00,60.6,49.6,29.96,ESE,122,5.0,7.0,67,0.00,,---,0.00,VWS V14.01,2013-12-03 20:06:00,
2013-12-03 15:11:00,60.6,50.0,29.96,South,173,4.0,7.0,68,0.00,,---,0.00,VWS V14.01,2013-12-03 20:11:00,
2013-12-03 15:16:00,60.5,49.9,29.96,South,171,4.0,5.0,68,0.00,,---,0.00,VWS V14.01,2013-12-03 20:16:00,
2013-12-03 15:21:00,60.5,50.3,29.96,SSW,198,4.0,6.0,69,0.00,,---,0.00,VWS V14.01,2013-12-03 20:21:00,
2013-12-03 15:26:00,60.4,50.2,29.96,SSE,151,2.0,6.0,69,0.00,,---,0.00,VWS V14.01,2013-12-03 20:26:00,
2013-12-03 15:31:00,60.2,50.0,29.96,SSE,161,5.0,5.0,69,0.00,,---,0.00,VWS V14.01,2013-12-03 20:31:00,
2013-12-03 15:37:00,60.0,49.8,29.97,South,191,4.0,9.0,69,0.00,,---,0.00,VWS V14.01,2013-12-03 20:37:00,
2013-12-03 15:42:00,59.9,49.7,29.96,SSE,168,3.0,9.0,69,0.00,,---,0.00,VWS V14.01,2013-12-03 20:42:00,
2013-12-03 15:47:00,59.8,50.0,29.97,SSE,147,2.0,7.0,70,0.00,,---,0.00,VWS V14.01,2013-12-03 20:47:00,
2013-12-03 15:52:00,59.6,49.8,29.97,South,184,4.0,8.0,70,0.00,,---,0.00,VWS V14.01,2013-12-03 20:52:00,
2013-12-03 15:57:00,59.4,50.0,29.97,South,190,5.0,8.0,71,0.00,,---,0.00,VWS V14.01,2013-12-03 20:57:00,
2013-12-03 16:02:00,59.2,49.8,29.97,South,170,5.0,5.0,71,0.00,,---,0.00,VWS V14.01,2013-12-03 21:02:00,
2013-12-03 16:07:00,59.0,49.6,29.97,South,173,4.0,7.0,71,0.00,,---,0.00,VWS V14.01,2013-12-03 21:07:00,
2013-12-03 16:12:00,58.8,49.8,29.97,South,173,3.0,7.0,72,0.00,,---,0.00,VWS V14.01,2013-12-03 21:12:00,
2013-12-03 16:17:00,58.6,49.6,29.97,SSE,151,4.0,6.0,72,0.00,,---,0.00,VWS V14.01,2013-12-03 21:17:00,
2013-12-03 16:22:00,58.4,49.8,29.97,South,178,6.0,7.0,73,0.00,,---,0.00,VWS V14.01,2013-12-03 21:22:00,
2013-12-03 16:27:00,58.2,49.6,29.98,South,183,2.0,7.0,73,0.00,,---,0.00,VWS V14.01,2013-12-03 21:27:00,
2013-12-03 16:32:00,58.0,49.8,29.98,SSE,159,1.0,3.0,74,0.00,,---,0.00,VWS V14.01,2013-12-03 21:32:00,
2013-12-03 16:37:00,57.8,49.6,29.98,South,169,4.0,9.0,74,0.00,,---,0.00,VWS V14.01,2013-12-03 21:37:00,
2013-12-03 16:42:00,57.6,49.4,29.98,SE,142,2.0,9.0,74,0.00,,---,0.00,VWS V14.01,2013-12-03 21:42:00,
2013-12-03 16:47:00,57.5,49.7,29.99,SSE,157,1.0,4.0,75,0.00,,---,0.00,VWS V14.01,2013-12-03 21:47:00,
2013-12-03 16:52:00,57.3,49.5,29.99,South,171,1.0,4.0,75,0.00,,---,0.00,VWS V14.01,2013-12-03 21:52:00,
2013-12-03 16:57:00,57.2,49.4,29.98,SSE,162,1.0,4.0,75,0.00,,---,0.00,VWS V14.01,2013-12-03 21:57:00,
2013-12-03 17:02:00,57.1,49.3,29.99,South,178,2.0,4.0,75,0.00,,---,0.00,VWS V14.01,2013-12-03 22:02:00,
2013-12-03 17:07:00,57.0,49.5,29.99,South,177,2.0,4.0,76,0.00,,---,0.00,VWS V14.01,2013-12-03 22:07:00,
2013-12-03 17:12:00,56.9,49.4,29.99,South,171,3.0,4.0,76,0.00,,---,0.00,VWS V14.01,2013-12-03 22:12:00,
2013-12-03 17:17:00,56.8,49.3,29.99,South,187,2.0,4.0,76,0.00,,---,0.00,VWS V14.01,2013-12-03 22:17:00,
2013-12-03 17:22:00,56.7,49.2,29.99,South,189,2.0,5.0,76,0.00,,---,0.00,VWS V14.01,2013-12-03 22:22:00,
2013-12-03 17:27:00,56.6,49.1,29.99,South,173,1.0,5.0,76,0.00,,---,0.00,VWS V14.01,2013-12-03 22:27:00,
2013-12-03 17:32:00,56.6,49.1,29.99,South,170,3.0,4.0,76,0.00,,---,0.00,VWS V14.01,2013-12-03 22:32:00,
2013-12-03 17:37:00,56.5,49.0,29.99,South,186,2.0,5.0,76,0.00,,---,0.00,VWS V14.01,2013-12-03 22:37:00,
2013-12-03 17:43:00,56.4,48.9,30.00,SSE,163,1.0,5.0,76,0.00,,---,0.00,VWS V14.01,2013-12-03 22:43:00,
2013-12-03 17:48:00,56.3,48.8,30.00,South,173,2.0,4.0,76,0.00,,---,0.00,VWS V14.01,2013-12-03 22:48:00,
2013-12-03 17:53:00,56.2,48.8,30.00,SSE,159,5.0,6.0,76,0.00,,---,0.00,VWS V14.01,2013-12-03 22:53:00,
2013-12-03 17:58:00,56.2,48.8,30.00,South,176,3.0,6.0,76,0.00,,---,0.00,VWS V14.01,2013-12-03 22:58:00,
2013-12-03 18:03:00,56.1,48.7,30.00,SSE,153,0.0,1.0,76,0.00,,---,0.00,VWS V14.01,2013-12-03 23:03:00,
2013-12-03 18:08:00,56.1,49.0,30.00,SSE,161,0.0,3.0,77,0.00,,---,0.00,VWS V14.01,2013-12-03 23:08:00,
2013-12-03 18:13:00,56.0,48.9,29.99,SSE,156,0.0,5.0,77,0.00,,---,0.00,VWS V14.01,2013-12-03 23:13:00,
2013-12-03 18:18:00,55.9,48.8,29.99,SSE,155,1.0,2.0,77,0.00,,---,0.00,VWS V14.01,2013-12-03 23:18:00,
2013-12-03 18:23:00,55.8,48.7,30.00,SSE,164,0.0,5.0,77,0.00,,---,0.00,VWS V14.01,2013-12-03 23:23:00,
2013-12-03 18:28:00,55.8,48.7,30.00,SSE,150,3.0,5.0,77,0.00,,---,0.00,VWS V14.01,2013-12-03 23:28:00,
2013-12-03 18:33:00,55.7,48.6,29.99,SSE,153,1.0,8.0,77,0.00,,---,0.00,VWS V14.01,2013-12-03 23:33:00,
2013-12-03 18:38:00,55.7,48.6,29.99,SSW,192,3.0,8.0,77,0.00,,---,0.00,VWS V14.01,2013-12-03 23:38:00,
2013-12-03 18:43:00,55.6,48.5,30.00,SSE,156,2.0,8.0,77,0.00,,---,0.00,VWS V14.01,2013-12-03 23:43:00,
2013-12-03 18:48:00,55.6,48.9,30.00,SSE,163,2.0,3.0,78,0.00,,---,0.00,VWS V14.01,2013-12-03 23:48:00,
2013-12-03 18:53:00,55.6,48.9,30.00,SSE,159,1.0,4.0,78,0.00,,---,0.00,VWS V14.01,2013-12-03 23:53:00,
2013-12-03 18:58:00,55.5,48.8,30.00,SE,128,1.0,5.0,78,0.00,,---,0.00,VWS V14.01,2013-12-03 23:58:00,
2013-12-03 19:03:00,55.4,49.0,30.01,SSE,165,3.0,4.0,79,0.00,,---,0.00,VWS V14.01,2013-12-04 00:03:00,
2013-12-03 19:08:00,55.4,49.0,30.01,SSE,165,0.0,4.0,79,0.00,,---,0.00,VWS V14.01,2013-12-04 00:08:00,
2013-12-03 19:13:00,55.4,49.0,30.01,SSE,165,0.0,4.0,79,0.00,,---,0.00,VWS V14.01,2013-12-04 00:13:00,
2013-12-03 19:18:00,55.3,49.2,30.01,SSE,165,0.0,0.0,80,0.00,,---,0.00,VWS V14.01,2013-12-04 00:18:00,
2013-12-03 19:23:00,55.3,49.2,30.01,SSE,165,1.0,2.0,80,0.00,,---,0.00,VWS V14.01,2013-12-04 00:23:00,
2013-12-03 19:29:00,55.3,49.2,30.01,South,190,0.0,3.0,80,0.00,,---,0.00,VWS V14.01,2013-12-04 00:29:00,
2013-12-03 19:34:00,55.2,49.2,30.01,South,186,0.0,3.0,80,0.00,,---,0.00,VWS V14.01,2013-12-04 00:34:00,
2013-12-03 19:39:00,55.2,49.2,30.01,SSW,206,2.0,4.0,80,0.00,,---,0.00,VWS V14.01,2013-12-04 00:39:00,
2013-12-03 19:44:00,55.1,49.0,30.02,SSE,162,1.0,4.0,80,0.00,,---,0.00,VWS V14.01,2013-12-04 00:44:00,
2013-12-03 19:49:00,55.1,49.0,30.01,SSE,153,0.0,3.0,80,0.00,,---,0.00,VWS V14.01,2013-12-04 00:49:00,
2013-12-03 19:54:00,55.1,49.0,30.02,South,171,0.0,3.0,80,0.00,,---,0.00,VWS V14.01,2013-12-04 00:54:00,
2013-12-03 19:59:00,55.0,49.0,30.01,ESE,115,0.0,4.0,80,0.00,,---,0.00,VWS V14.01,2013-12-04 00:59:00,
2013-12-03 20:04:00,55.0,49.0,30.01,SSE,157,0.0,4.0,80,0.00,,---,0.00,VWS V14.01,2013-12-04 01:04:00,
2013-12-03 20:09:00,55.0,48.6,30.01,SSE,156,1.0,4.0,79,0.00,,---,0.00,VWS V14.01,2013-12-04 01:09:00,
2013-12-03 20:14:00,54.9,48.5,30.01,ESE,113,1.0,4.0,79,0.00,,---,0.00,VWS V14.01,2013-12-04 01:14:00,
2013-12-03 20:19:00,54.9,48.5,30.01,ESE,113,0.0,1.0,79,0.00,,---,0.00,VWS V14.01,2013-12-04 01:19:00,
2013-12-03 20:24:00,54.9,48.5,30.01,SE,126,1.0,2.0,79,0.00,,---,0.00,VWS V14.01,2013-12-04 01:24:00,
2013-12-03 20:29:00,54.9,48.5,30.01,SSE,161,3.0,3.0,79,0.00,,---,0.00,VWS V14.01,2013-12-04 01:29:00,
2013-12-03 20:34:00,54.8,48.4,30.01,SSE,167,1.0,3.0,79,0.00,,---,0.00,VWS V14.01,2013-12-04 01:34:00,
2013-12-03 20:39:00,54.8,48.8,30.01,SSE,158,2.0,3.0,80,0.00,,---,0.00,VWS V14.01,2013-12-04 01:39:00,
2013-12-03 20:44:00,54.8,48.8,30.01,SSE,158,3.0,4.0,80,0.00,,---,0.00,VWS V14.01,2013-12-04 01:44:00,
2013-12-03 20:49:00,54.7,48.7,30.01,South,171,1.0,3.0,80,0.00,,---,0.00,VWS V14.01,2013-12-04 01:49:00,
2013-12-03 20:54:00,54.7,48.7,30.01,SSE,155,3.0,5.0,80,0.00,,---,0.00,VWS V14.01,2013-12-04 01:54:00,
2013-12-03 20:59:00,54.7,48.7,30.01,SE,137,3.0,5.0,80,0.00,,---,0.00,VWS V14.01,2013-12-04 01:59:00,
2013-12-03 21:04:00,54.6,48.6,30.01,ESE,120,1.0,5.0,80,0.00,,---,0.00,VWS V14.01,2013-12-04 02:04:00,
2013-12-03 21:09:00,54.6,48.6,30.01,ESE,120,0.0,5.0,80,0.00,,---,0.00,VWS V14.01,2013-12-04 02:09:00,
2013-12-03 21:14:00,54.6,48.9,30.01,SE,126,0.0,5.0,81,0.00,,---,0.00,VWS V14.01,2013-12-04 02:14:00,
2013-12-03 21:19:00,54.6,48.9,30.01,SE,126,0.0,2.0,81,0.00,,---,0.00,VWS V14.01,2013-12-04 02:19:00,
2013-12-03 21:24:00,54.6,49.2,30.01,SE,138,0.0,2.0,82,0.00,,---,0.00,VWS V14.01,2013-12-04 02:24:00,
2013-12-03 21:29:00,54.6,49.2,30.01,SE,138,0.0,2.0,82,0.00,,---,0.00,VWS V14.01,2013-12-04 02:29:00,
2013-12-03 21:35:00,54.6,49.5,30.02,South,171,1.0,2.0,83,0.00,,---,0.00,VWS V14.01,2013-12-04 02:35:00,
2013-12-03 21:40:00,54.5,49.5,30.02,SSE,163,4.0,5.0,83,0.00,,---,0.00,VWS V14.01,2013-12-04 02:40:00,
2013-12-03 21:45:00,54.4,49.7,30.01,SSE,161,2.0,5.0,84,0.00,,---,0.00,VWS V14.01,2013-12-04 02:45:00,
2013-12-03 21:50:00,54.3,49.6,30.01,South,169,2.0,3.0,84,0.00,,---,0.00,VWS V14.01,2013-12-04 02:50:00,
2013-12-03 21:55:00,54.3,49.6,30.01,SSE,151,0.0,3.0,84,0.00,,---,0.00,VWS V14.01,2013-12-04 02:55:00,
2013-12-03 22:00:00,54.2,49.5,30.01,SSE,151,0.0,3.0,84,0.00,,---,0.00,VWS V14.01,2013-12-04 03:00:00,
2013-12-03 22:05:00,54.1,49.7,30.01,SSE,161,1.0,2.0,85,0.00,,---,0.00,VWS V14.01,2013-12-04 03:05:00,
2013-12-03 22:10:00,54.0,49.6,30.01,SSE,148,0.0,3.0,85,0.00,,---,0.00,VWS V14.01,2013-12-04 03:10:00,
2013-12-03 22:15:00,53.9,49.5,30.01,SE,146,2.0,4.0,85,0.00,,---,0.00,VWS V14.01,2013-12-04 03:15:00,
2013-12-03 22:20:00,53.8,49.4,30.01,SE,138,0.0,3.0,85,0.00,,---,0.00,VWS V14.01,2013-12-04 03:20:00,
2013-12-03 22:25:00,53.7,49.3,30.01,South,173,0.0,3.0,85,0.00,,---,0.00,VWS V14.01,2013-12-04 03:25:00,
2013-12-03 22:30:00,53.6,49.2,30.01,SE,145,2.0,3.0,85,0.00,,---,0.00,VWS V14.01,2013-12-04 03:30:00,
2013-12-03 22:35:00,53.5,49.4,30.01,SSE,163,2.0,3.0,86,0.00,,---,0.00,VWS V14.01,2013-12-04 03:35:00,
2013-12-03 22:40:00,53.4,49.3,30.01,SSE,150,1.0,3.0,86,0.00,,---,0.00,VWS V14.01,2013-12-04 03:40:00,
2013-12-03 22:45:00,53.3,49.2,30.02,SSE,147,1.0,1.0,86,0.00,,---,0.00,VWS V14.01,2013-12-04 03:45:00,
2013-12-03 22:50:00,53.3,49.2,30.02,SSE,147,0.0,2.0,86,0.00,,---,0.00,VWS V14.01,2013-12-04 03:50:00,
2013-12-03 22:55:00,53.2,49.1,30.02,SSE,153,0.0,2.0,86,0.00,,---,0.00,VWS V14.01,2013-12-04 03:55:00,
2013-12-03 23:00:00,53.2,49.4,30.02,SSE,153,1.0,1.0,87,0.00,,---,0.00,VWS V14.01,2013-12-04 04:00:00,
2013-12-03 23:05:00,53.2,49.4,30.01,SSE,150,0.0,3.0,87,0.00,,---,0.00,VWS V14.01,2013-12-04 04:05:00,
2013-12-03 23:10:00,53.1,49.3,30.02,SSE,163,3.0,4.0,87,0.00,,---,0.00,VWS V14.01,2013-12-04 04:10:00,
2013-12-03 23:15:00,53.1,49.3,30.02,South,171,1.0,1.0,87,0.00,,---,0.00,VWS V14.01,2013-12-04 04:15:00,
2013-12-03 23:20:00,53.1,49.7,30.02,SSE,155,0.0,2.0,88,0.00,,---,0.00,VWS V14.01,2013-12-04 04:20:00,
2013-12-03 23:25:00,53.1,49.7,30.02,SSE,161,1.0,3.0,88,0.00,,---,0.00,VWS V14.01,2013-12-04 04:25:00,
2013-12-03 23:30:00,53.1,49.7,30.02,SSE,160,0.0,2.0,88,0.00,,---,0.00,VWS V14.01,2013-12-04 04:30:00,
2013-12-03 23:35:00,53.2,49.7,30.02,SSE,153,1.0,3.0,88,0.00,,---,0.00,VWS V14.01,2013-12-04 04:35:00,
2013-12-03 23:41:00,53.2,50.0,30.03,SSE,153,0.0,3.0,89,0.00,,---,0.00,VWS V14.01,2013-12-04 04:41:00,
2013-12-03 23:46:00,53.2,50.0,30.03,South,175,0.0,0.0,89,0.00,,---,0.00,VWS V14.01,2013-12-04 04:46:00,
2013-12-03 23:51:00,53.2,50.0,30.03,South,175,0.0,0.0,89,0.00,,---,0.00,VWS V14.01,2013-12-04 04:51:00,
2013-12-03 23:56:00,53.3,50.2,30.03,South,175,0.0,2.0,89,0.00,,---,0.00,VWS V14.01,2013-12-04 04:56:00,